Location: Waco, TX
(31.5480°N, 97.1670°W)
Time: 16:08:08
(UTC-06:00)

ISS - Pass Details

Date: 30 January 2021
Orbit: 417 x 422 km, 51.6° (Epoch: 07 March)

Event Time Altitude Azimuth Distance (km) Brightness Sun altitude
Rises 21:15:48 0° 322° (NW) 2,372 - -41.4°
Reaches altitude 10° 21:18:01 10° 331° (NNW) 1,505 - -41.9°
Maximum altitude 21:21:11 37° 41° (NE) 671 - -42.6°
Drops below altitude 10° 21:24:20 10° 111° (ESE) 1,498 - -43.2°
Sets 21:26:31 0° 119° (ESE) 2,359 - -43.7°
